Location: Unspecified
(40.8819°N, 0.0000°E)
Time: 17:24:36
(UTC+00:00)

ARIANE 6 FM1 Upper Stage - Visible Passes

Search period start: 08 June 2026 00:00
Search period end: 18 June 2026 00:00
Orbit: 528 x 599 km, 62.0° (Epoch: 8 June)

Date Brightness Start Highest point End Pass type
(mag) Time Alt. Az. Time Alt. Az. Time Alt. Az.
8 Jun 4.2 01:21:21 25° ESE 01:21:21 25° ESE 01:24:28 10° ENE visible
8 Jun 3.8 02:57:18 18° WSW 02:59:52 34° NW 03:03:39 10° NNE visible
9 Jun 3.6 01:20:38 37° ESE 01:20:38 37° ESE 01:24:07 10° NE visible
9 Jun 4.3 02:56:35 14° W 02:59:20 25° NW 03:02:45 10° NNE visible
10 Jun 3.0 01:19:51 55° ESE 01:19:51 55° ESE 01:23:37 10° NE visible
10 Jun 4.7 02:55:49 10° W 02:58:49 19° NW 03:01:47 10° N visible
11 Jun 2.6 01:19:01 81° ENE 01:19:01 81° ENE 01:23:00 10° NE visible
11 Jun 5.1 02:56:00 10° WNW 02:58:21 14° NW 03:00:40 10° N visible
12 Jun 2.8 01:18:08 66° WNW 01:18:11 66° NW 01:22:18 10° NNE visible
12 Jun 5.3 02:56:37 10° NW 02:57:54 11° NNW 02:59:12 10° NNW visible
12 Jun 5.2 23:41:15 12° ENE 23:41:15 12° ENE 23:41:49 10° ENE visible
13 Jun 3.3 01:17:11 44° WNW 01:17:33 45° NW 01:21:32 10° NNE visible
13 Jun 4.8 23:40:15 18° ENE 23:40:15 18° ENE 23:41:37 10° ENE visible
14 Jun 4.0 01:16:10 30° WNW 01:16:57 32° NW 01:20:41 10° NNE visible
14 Jun 4.3 23:39:10 25° ENE 23:39:10 25° ENE 23:41:11 10° NE visible
15 Jun 4.5 01:15:05 20° WNW 01:16:22 24° NW 01:19:45 10° NNE visible
15 Jun 3.8 23:38:01 36° ENE 23:38:01 36° ENE 23:40:38 10° NE visible
16 Jun 5.0 01:13:55 14° WNW 01:15:50 18° NW 01:18:44 10° N visible
16 Jun 3.2 23:36:45 53° NE 23:36:45 53° NE 23:39:58 10° NE visible
17 Jun 5.3 01:13:07 10° WNW 01:15:20 14° NW 01:17:32 10° N visible
17 Jun 3.1 23:35:24 60° NNW 23:35:24 60° NNW 23:39:13 10° NNE visible
